Theta_e
313 313 313 313 313 313 314 314 314 315 315 315 316 317 317 317 317 317 316 316 315 315 315 315 315 315 316 324 327 330 331 335 334 335 341 345 345 345 349 349 351 354 353 350 349 348 346
312 312 312 313 313 313 313 313 314 314 315 315 315 315 316 317 317 317 317 317 316 316 315 315 315 314 315 323 326 332 328 328 334 336 340 345 345 345 346 348 350 350 349 350 350 348 347
311 311 312 312 312 312 313 313 313 314 315 315 315 315 315 315 317 318 317 317 317 317 316 315 315 314 318 321 326 329 330 331 336 339 340 344 343 347 347 348 348 352 353 349 350 348 348
311 311 312 312 312 312 312 313 313 314 314 314 315 315 315 314 315 316 317 318 317 317 317 316 315 314 320 322 324 326 330 335 338 338 339 341 342 346 347 348 349 353 349 351 350 348 347
311 312 312 312 312 312 312 313 313 314 314 314 314 314 315 315 314 314 317 318 318 317 317 317 315 316 320 324 325 324 327 329 337 338 339 340 344 346 346 348 353 352 351 353 355 351 347
311 311 312 313 313 313 313 314 314 314 314 314 314 314 315 315 315 313 316 317 317 317 317 316 316 327 327 326 325 325 326 328 338 339 338 339 342 344 346 349 355 348 355 356 357 350 349
311 312 314 313 314 314 314 314 314 314 314 314 314 315 315 315 315 313 315 318 323 326 321 324 323 322 325 327 326 325 326 328 338 339 339 340 342 345 345 347 350 351 350 353 351 348 347
313 314 314 314 314 314 314 314 314 314 314 313 313 314 315 315 314 312 313 316 323 322 323 325 325 323 323 324 326 327 327 329 337 342 340 340 344 343 343 345 350 349 348 351 348 348 347
314 314 314 314 315 315 315 314 314 314 314 314 314 314 314 315 313 317 322 320 322 321 322 322 323 326 323 324 325 327 327 329 336 340 340 342 343 343 342 352 350 348 346 344 347 346 345
314 314 315 315 315 315 314 314 314 314 314 313 314 314 314 316 316 321 321 321 321 320 322 323 323 323 323 324 325 325 328 329 332 338 337 339 340 340 343 350 352 354 345 344 348 350 354
314 314 315 315 315 314 314 314 313 313 313 313 314 314 315 315 315 315 321 320 319 319 325 328 325 324 323 324 325 325 326 330 331 333 337 339 339 341 343 343 343 343 346 346 347 352 350
314 315 315 315 314 314 314 313 313 312 313 312 314 315 315 317 317 316 319 320 319 323 326 326 326 325 325 324 324 326 326 328 331 332 335 338 338 340 339 342 341 346 352 352 352 352 362
315 315 315 314 313 314 313 314 313 313 312 313 315 315 315 314 322 320 319 319 324 325 327 327 326 326 326 325 325 326 327 328 332 333 334 338 339 339 339 343 349 349 354 359 356 353 358
312 313 313 313 314 314 314 314 314 313 312 313 315 317 316 315 321 319 320 322 326 328 327 328 328 328 325 326 325 325 327 327 331 333 335 338 341 339 340 346 349 348 350 358 362 352 351
312 313 313 314 314 314 314 314 314 313 312 313 316 322 322 322 316 319 321 324 326 328 328 327 327 327 329 328 327 326 326 327 329 332 338 339 339 339 340 339 348 351 356 353 352 351 350
313 313 314 314 314 314 314 313 313 312 312 314 317 323 324 322 319 319 323 324 326 326 327 327 326 327 327 328 329 328 327 328 328 331 334 337 340 340 340 341 347 345 350 354 352 357 357
314 314 314 314 314 314 314 313 312 312 312 314 319 328 322 322 319 320 325 326 326 325 326 326 326 326 327 328 330 329 329 328 330 330 333 335 339 341 342 342 355 352 355 352 350 353 355
313 313 313 313 313 314 313 313 312 312 311 314 321 328 321 319 321 323 325 325 325 326 326 325 325 325 326 328 328 329 330 330 329 331 332 334 335 343 340 341 345 350 349 349 349 358 354
313 313 313 314 313 314 313 313 312 312 311 314 321 324 322 320 325 327 328 326 325 326 325 325 325 325 326 326 327 327 329 330 331 330 332 334 336 340 348 345 345 347 349 350 349 350 355
315 313 314 314 314 314 313 313 314 312 312 316 323 326 326 324 323 324 326 327 327 327 327 326 325 325 325 325 326 327 329 330 331 331 334 336 334 336 348 346 345 346 343 347 349 352 351
317 315 315 316 316 313 313 313 314 314 314 318 321 323 323 325 324 324 326 327 326 327 328 327 328 325 324 324 325 325 326 328 329 330 331 333 335 337 337 344 346 345 345 345 345 346 347
318 317 316 317 316 314 313 313 313 314 314 319 317 318 318 319 320 323 322 324 325 325 327 329 329 329 328 326 325 326 329 330 330 330 331 332 337 338 339 344 344 345 347 348 345 344 345
319 318 317 317 317 315 314 314 313 314 314 317 317 315 317 319 321 323 324 325 325 325 326 327 328 328 330 329 329 328 327 328 330 332 334 332 335 338 340 339 346 348 346 343 343 343 345
322 320 318 318 317 316 315 314 314 314 313 314 317 315 317 320 320 320 320 321 322 323 325 324 324 326 328 327 326 327 327 328 329 330 331 333 337 339 339 343 351 345 342 341 343 344 342
323 322 320 318 318 317 316 315 314 314 314 313 316 316 316 318 317 318 320 321 320 320 322 325 323 323 323 323 326 327 327 328 328 329 329 331 334 336 340 339 340 341 341 343 342 344 341
322 322 321 319 319 318 315 315 314 314 314 313 314 315 314 316 319 315 318 318 320 323 326 323 324 322 323 324 326 329 329 328 328 329 328 329 332 336 338 339 339 339 340 340 342 340 342
322 322 321 320 319 318 315 315 314 314 313 312 312 313 313 313 314 315 315 316 315 318 321 322 324 325 324 325 327 328 328 327 328 328 332 330 335 335 336 337 339 340 340 339 344 347 345
321 321 320 319 318 318 315 315 314 313 313 311 312 313 313 312 312 313 316 315 316 317 320 320 322 325 324 326 326 327 328 328 330 332 333 333 337 335 336 338 339 336 337 341 347 341 342
321 320 320 319 318 317 316 315 315 314 313 310 311 313 312 311 312 311 312 312 313 313 315 316 320 322 325 327 327 329 330 332 334 333 333 335 332 335 335 336 338 334 337 342 340 342 341
Wind_Speed
16 16 16 16 16 16 16 16 16 16 16 17 17 18 20 20 20 20 21 20 20 20 19 18 18 18 15 11 26 17 11 9 7 17 22 24 20 18 17 18 13 18 16 27 46 17 7
15 15 15 15 16 16 16 16 17 17 18 18 18 18 19 21 21 21 21 21 20 20 19 18 17 16 14 19 20 13 12 15 16 20 24 26 19 21 19 21 18 7 21 32 18 12 10
15 15 15 16 17 17 17 17 17 17 18 18 18 19 19 20 20 21 22 21 20 20 18 17 17 16 15 31 13 11 16 16 17 22 26 27 25 23 22 20 19 29 18 17 18 20 13
15 15 16 16 17 18 19 19 20 20 21 21 21 20 21 21 20 20 21 21 20 19 17 16 15 13 16 22 19 20 14 19 18 21 25 23 23 27 29 16 10 23 16 15 17 19 13
14 15 16 17 18 19 19 19 19 20 21 21 22 22 22 22 21 21 21 19 19 18 16 14 12 12 21 12 22 25 27 22 23 21 23 27 29 26 22 17 17 21 15 12 12 16 14
15 16 17 18 18 19 19 21 21 22 23 23 24 25 24 24 22 21 20 16 15 16 15 12 12 9 24 23 22 23 22 25 23 24 26 31 18 15 16 17 14 18 10 13 8 12 26
14 15 16 16 17 19 20 21 23 24 25 25 26 26 27 26 22 22 18 10 6 6 18 19 16 24 28 15 15 22 26 25 25 25 21 25 16 19 23 17 10 14 15 8 1 28 15
14 15 16 17 19 20 22 24 25 27 27 27 27 27 28 25 22 19 17 8 10 11 12 26 31 32 28 22 19 19 26 30 27 22 23 20 22 23 23 7 2 2 5 9 8 23 11
14 15 17 19 21 23 24 25 26 28 29 30 30 29 29 26 20 11 11 14 16 12 11 25 32 35 35 27 21 21 27 33 22 23 23 24 25 23 25 12 4 3 2 5 7 21 24
14 15 17 19 22 24 26 27 28 29 31 32 32 31 30 27 10 7 9 6 7 6 7 14 31 38 33 34 27 26 28 33 23 27 25 24 25 23 17 19 17 10 6 11 14 2 12
15 17 19 21 22 24 27 30 31 31 32 33 32 32 30 22 10 7 7 5 5 4 6 0 24 12 39 36 33 28 29 31 28 26 18 25 27 26 17 29 18 9 20 14 5 13 21
16 18 20 21 22 24 26 30 33 33 32 33 31 31 27 10 5 6 8 7 5 6 13 4 12 10 20 31 32 26 32 30 31 26 28 25 31 26 24 13 9 21 17 12 21 22 12
17 18 20 21 23 25 27 30 34 36 34 34 30 28 16 7 6 1 4 6 6 9 10 6 16 14 18 22 26 29 27 25 23 23 25 28 27 23 18 6 16 21 13 6 7 11 15
17 18 20 21 24 27 29 31 34 36 35 34 27 20 7 5 7 6 4 8 10 13 20 21 3 19 16 19 23 27 25 24 26 28 19 23 22 26 22 20 21 12 10 6 9 10 15
17 19 20 22 24 27 31 33 34 36 35 35 23 7 8 8 5 6 10 10 9 15 14 15 11 13 15 20 18 24 29 26 26 26 26 23 28 23 27 18 19 4 3 5 3 5 6
18 19 21 23 25 27 30 32 34 36 34 29 23 6 10 4 4 6 8 17 20 23 22 12 16 15 11 15 20 23 25 28 25 28 29 26 17 14 23 18 12 9 14 9 4 3 6
19 20 22 24 26 27 29 31 34 37 33 25 12 8 3 4 8 9 9 14 18 25 21 6 15 20 22 22 17 21 20 26 24 26 27 27 8 20 10 17 25 12 8 5 5 3 3
20 21 23 25 26 26 28 29 31 35 38 27 8 5 6 7 9 10 11 16 20 20 21 12 10 18 21 17 11 12 16 20 26 25 28 28 24 16 22 24 20 23 17 16 8 8 4
20 21 22 24 25 25 27 27 29 29 33 33 12 16 7 9 7 9 13 17 14 17 12 16 18 16 19 16 10 13 18 18 19 23 27 23 21 13 11 10 22 8 21 21 19 8 12
20 20 21 23 24 25 25 26 27 26 23 23 10 6 7 11 16 14 15 14 14 17 16 12 16 20 18 18 14 15 17 13 17 13 8 22 23 19 13 17 14 4 20 22 20 9 9
19 19 20 21 23 24 24 25 27 26 14 16 8 10 16 8 15 18 18 14 17 18 21 9 12 17 17 16 17 17 18 21 21 15 14 15 24 25 26 28 18 13 13 31 23 19 15
19 20 19 20 21 22 23 24 25 25 19 7 11 10 18 24 24 19 15 16 17 16 17 15 10 15 15 17 18 18 12 17 15 15 17 18 17 19 24 24 18 9 5 33 16 22 18
20 19 19 20 20 21 22 22 22 22 19 9 15 13 12 14 16 15 12 17 14 16 13 14 14 16 20 10 17 19 20 21 22 18 15 19 16 17 19 22 18 9 23 8 14 27 24
19 19 18 18 18 20 20 20 19 18 16 9 14 16 14 10 13 14 22 20 18 18 18 20 20 16 20 24 24 25 22 22 20 17 16 16 16 14 14 7 13 16 23 20 19 26 13
21 20 18 18 17 18 19 18 18 17 14 12 9 12 11 9 17 17 19 17 22 21 20 19 20 20 21 22 15 15 14 18 21 21 17 17 12 11 13 15 16 11 18 26 23 22 25
19 21 19 18 17 18 18 16 16 17 16 13 9 7 10 10 6 19 18 18 14 15 14 16 16 17 13 9 11 16 13 19 16 19 19 19 17 12 11 13 21 17 2 5 25 9 29
20 19 19 18 18 17 17 16 15 15 16 14 10 7 7 13 22 21 17 16 21 16 12 19 19 10 8 9 12 15 15 19 19 23 18 16 15 16 12 10 10 0 7 5 5 2 21
19 19 19 19 18 17 16 15 15 14 13 14 11 11 12 11 28 27 12 20 22 20 11 15 14 9 8 11 12 13 14 14 17 20 20 18 14 14 13 12 12 7 7 3 3 5 29
19 19 19 17 16 17 16 16 15 15 13 14 18 7 9 18 29 41 43 37 36 37 32 24 23 22 7 6 6 6 12 11 14 14 17 17 15 14 13 12 10 7 9 17 12 9 10
Wind_Direction
359 358 357 355 353 349 347 344 342 338 334 327 316 306 300 298 295 293 293 292 290 290 291 292 293 298 300 265 251 270 250 239 234 213 212 217 223 235 243 257 335 267 276 165 247 211 212
7 6 5 3 359 357 354 350 345 341 336 333 328 322 311 300 295 290 288 288 288 287 288 288 288 290 292 263 258 224 253 249 245 217 216 221 226 235 247 261 258 36 337 280 285 268 174
6 7 6 5 4 1 358 355 351 346 341 336 331 326 320 313 300 295 289 284 284 283 285 285 284 284 265 244 254 241 226 250 232 217 218 223 230 238 237 250 285 301 214 275 261 261 197
7 6 6 5 2 359 358 356 352 350 346 342 337 331 325 320 313 301 290 284 279 278 280 281 279 276 258 261 254 242 242 230 223 222 222 225 232 242 262 283 44 300 257 264 251 213 217
5 5 4 3 0 359 357 355 354 350 347 345 341 337 331 326 317 308 297 286 277 274 274 274 270 236 263 264 230 228 227 237 217 220 224 231 234 243 257 255 243 238 253 263 346 310 197
3 3 3 2 1 360 359 358 355 352 349 346 343 339 335 330 320 310 304 293 277 270 266 263 228 248 252 240 229 221 219 220 222 213 214 229 239 244 243 253 251 253 7 43 356 297 350
4 4 4 5 5 4 0 357 354 350 346 343 341 338 335 334 322 313 309 311 280 245 212 214 208 208 277 222 214 214 210 211 220 214 217 213 225 231 236 245 55 51 27 102 206 271 299
8 9 9 6 3 360 357 353 349 345 342 338 336 332 330 334 321 309 298 258 275 316 287 240 245 239 252 269 219 227 200 204 217 215 215 223 219 235 241 234 175 182 357 75 314 261 275
13 9 4 1 358 355 352 348 345 341 337 336 335 331 327 332 323 315 309 261 276 303 278 267 241 235 233 236 239 216 207 203 214 214 221 223 230 217 243 157 103 301 188 9 52 319 300
7 2 359 356 352 350 346 345 343 341 337 335 332 329 325 328 316 292 283 298 276 272 278 256 216 233 225 222 232 226 212 209 216 221 228 235 233 250 233 183 148 155 140 60 48 319 255
358 355 353 350 349 348 346 344 343 342 338 333 331 326 324 321 275 251 309 322 287 243 275 47 198 206 204 207 218 220 230 203 221 218 224 232 240 236 194 256 169 209 142 123 276 266 254
347 347 347 346 348 348 347 344 343 343 341 332 330 324 327 321 329 288 238 302 273 234 243 179 126 174 192 205 214 231 209 223 221 228 229 235 239 240 241 189 148 136 143 234 188 205 231
345 346 347 346 346 348 349 346 341 341 342 333 331 323 322 283 186 2 261 240 222 239 241 221 168 202 209 205 208 220 198 216 210 219 230 236 234 240 256 88 345 166 209 205 185 228 240
347 347 348 348 348 347 346 345 342 340 344 334 333 327 332 331 223 287 193 220 245 255 238 291 223 181 195 213 204 212 224 211 212 221 221 230 229 204 241 165 192 225 163 300 213 232 236
349 348 349 350 348 346 346 345 343 340 345 337 337 329 337 331 237 199 222 222 241 255 343 345 301 262 199 205 212 204 226 210 217 218 228 227 235 223 200 249 135 155 99 304 99 42 285
346 346 347 347 346 348 347 347 346 342 346 341 337 297 233 228 197 187 229 249 264 273 302 308 301 294 237 240 217 193 212 230 208 217 229 239 242 226 207 205 105 142 135 214 75 211 244
341 343 343 343 346 348 349 350 349 343 346 346 330 266 165 177 176 219 237 247 256 265 266 304 280 288 299 277 261 221 211 224 217 217 218 236 186 275 276 228 133 131 154 92 100 140 158
333 337 338 340 343 346 351 353 354 349 344 354 311 281 168 163 211 229 249 253 261 283 298 297 270 279 286 312 302 301 239 218 216 219 225 220 242 200 271 271 195 167 170 160 202 181 161
328 332 334 338 340 345 351 353 354 356 347 343 307 291 197 186 259 263 276 244 243 273 284 278 274 258 284 298 304 291 290 285 249 218 221 226 226 224 186 312 295 206 168 185 182 143 181
328 328 331 336 338 343 350 352 354 358 347 337 298 311 159 218 257 270 277 297 303 292 267 260 268 279 261 263 268 280 292 284 293 275 259 236 232 230 199 193 241 262 276 224 206 185 180
329 327 331 335 337 341 347 352 356 358 360 340 290 327 342 299 316 331 325 314 297 294 300 228 276 244 267 259 263 261 269 280 291 298 291 273 238 245 253 190 184 202 265 292 223 217 216
327 328 333 334 337 339 343 351 354 359 6 347 355 339 326 298 289 279 270 264 261 269 275 314 266 307 258 239 252 259 305 284 288 277 257 255 255 250 251 173 177 130 206 258 292 298 216
322 326 330 331 334 338 340 346 352 356 12 357 348 332 308 296 293 286 307 339 316 328 315 297 305 303 289 9 348 327 316 296 295 304 299 244 241 244 252 257 148 155 216 252 278 280 283
317 321 320 324 328 333 336 338 343 352 3 355 339 335 313 302 313 321 330 312 305 299 301 288 293 295 294 331 322 307 289 272 273 271 285 289 241 241 255 164 177 200 216 203 202 245 296
306 313 313 316 321 326 328 330 333 342 347 352 338 331 322 301 311 309 332 320 321 302 283 268 269 264 279 289 290 285 278 265 264 258 253 271 272 243 252 247 262 194 200 215 218 211 198
305 303 308 310 314 318 322 326 329 333 337 339 322 310 303 303 198 341 324 317 315 325 301 269 272 260 268 263 268 258 247 253 240 249 242 245 258 261 269 274 249 248 52 194 218 268 199
298 299 300 302 309 311 315 318 322 323 326 328 309 281 277 285 283 322 310 300 300 294 297 306 340 303 249 252 250 251 251 249 249 229 223 229 237 239 234 257 274 111 63 33 340 7 355
304 305 303 298 302 302 303 307 314 314 318 313 298 298 270 263 285 285 279 310 303 295 282 288 314 253 247 255 244 252 261 260 254 256 222 215 227 232 237 221 235 54 322 239 72 50 23
301 300 300 300 297 297 298 301 307 306 312 302 297 304 310 257 263 287 285 278 265 257 262 274 280 297 319 323 336 305 291 286 266 266 256 229 217 227 229 228 254 139 244 103 144 211 150